TimeCST,TemperatureF,Dew PointF,Humidity,Sea Level PressureIn,VisibilityMPH,Wind Direction,Wind SpeedMPH,Gust SpeedMPH,PrecipitationIn,Events,Conditions,WindDirDegrees,DateUTC
12:54 AM,3.0,-4.0,73,30.32,10.0,NNW,6.9,-,N/A,,Clear,340,2013-01-26 06:54:00
1:54 AM,1.9,-4.0,76,30.34,10.0,NW,4.6,-,N/A,,Clear,310,2013-01-26 07:54:00
2:54 AM,1.9,-5.1,72,30.35,10.0,WNW,8.1,-,N/A,,Clear,290,2013-01-26 08:54:00
3:54 AM,1.0,-5.1,75,30.35,10.0,NW,4.6,-,N/A,,Clear,320,2013-01-26 09:54:00
4:54 AM,1.0,-5.1,75,30.36,10.0,West,5.8,-,N/A,,Clear,270,2013-01-26 10:54:00
5:54 AM,1.0,-5.1,75,30.37,10.0,WNW,3.5,-,N/A,,Clear,290,2013-01-26 11:54:00
6:54 AM,1.0,-4.0,79,30.38,10.0,Calm,Calm,-,N/A,,Clear,0,2013-01-26 12:54:00
7:54 AM,1.0,-5.1,75,30.40,10.0,Calm,Calm,-,N/A,,Clear,0,2013-01-26 13:54:00
8:54 AM,5.0,-0.9,76,30.40,10.0,ESE,3.5,-,N/A,,Clear,110,2013-01-26 14:54:00
9:54 AM,10.9,1.9,67,30.40,10.0,SSE,8.1,-,N/A,,Clear,150,2013-01-26 15:54:00
10:54 AM,16.0,3.9,59,30.40,10.0,SSE,11.5,-,N/A,,Clear,150,2013-01-26 16:54:00
11:54 AM,19.0,3.9,52,30.36,10.0,SSE,10.4,-,N/A,,Mostly Cloudy,150,2013-01-26 17:54:00
12:54 PM,21.9,5.0,48,30.35,10.0,SSE,11.5,-,N/A,,Partly Cloudy,160,2013-01-26 18:54:00
1:54 PM,21.9,5.0,48,30.32,10.0,South,12.7,-,N/A,,Overcast,170,2013-01-26 19:54:00
2:54 PM,23.0,6.1,48,30.31,10.0,SSE,13.8,-,N/A,,Overcast,150,2013-01-26 20:54:00
3:54 PM,21.9,6.1,51,30.29,10.0,SSE,15.0,-,N/A,,Overcast,160,2013-01-26 21:54:00
4:54 PM,21.9,7.0,53,30.26,10.0,SSE,15.0,23.0,N/A,,Overcast,150,2013-01-26 22:54:00
5:54 PM,23.0,7.0,50,30.25,10.0,SSE,17.3,-,N/A,,Overcast,150,2013-01-26 23:54:00
6:54 PM,23.0,8.1,53,30.24,10.0,SE,17.3,-,N/A,,Overcast,140,2013-01-27 00:54:00
7:54 PM,24.1,8.1,51,30.22,10.0,SSE,19.6,25.3,N/A,,Overcast,150,2013-01-27 01:54:00
8:54 PM,24.1,9.0,53,30.23,10.0,SSE,15.0,21.9,N/A,,Overcast,150,2013-01-27 02:54:00
9:54 PM,24.1,9.0,53,30.22,10.0,SSE,15.0,-,N/A,,Scattered Clouds,160,2013-01-27 03:54:00
10:54 PM,24.1,10.0,55,30.22,10.0,SSE,11.5,-,N/A,,Clear,160,2013-01-27 04:54:00
11:54 PM,26.1,10.9,53,30.21,10.0,SSE,15.0,-,N/A,,Overcast,160,2013-01-27 05:54:00